Chapel Hill, NC

12:27 PM EDT on June 25, 2018 (GMT -0400)
Williams

Weather History for KIGX - February, 2009

Change the Weather History Date:

Thursday, February 12, 2009

  Actual Average Record
Temperature  
Mean Temperature 61 °F -  
Max Temperature 68 °F 52 °F 81 °F (2017)
Min Temperature 51 °F 26 °F 9 °F (1973)
Degree Days  
Heating Degree Days 4    
Growing Degree Days 11 (Base 50)    
Moisture  
Dew Point 27 °F    
Average Humidity 31    
Maximum Humidity 58    
Minimum Humidity 15    
Precipitation  
Precipitation 0.00 in - - ()
Sea Level Pressure  
Sea Level Pressure 29.92 in    
Wind  
Wind Speed 7 mph (West)    
Max Wind Speed 23 mph    
Max Gust Speed 37 mph    
Visibility 10 miles    
Events      
Averages and records for this station are not official NWS values.
T = Trace of Precipitation, MM = Missing Value Source: NWS Daily Summary

Daily Weather History Graph

Daily Weather History Graph

Search for Another Location

Airport or City:

Astronomy

Feb. 12, 2009 Rise Set
Actual Time 7:06 AM EST 5:55 PM EST
Civil Twilight 6:40 AM EST 6:21 PM EST
Nautical Twilight 6:10 AM EST 6:51 PM EST
Astronomical Twilight 5:40 AM EST 7:21 PM EST
Moon 9:38 PM EST (2/12) 8:33 AM EST (2/12)
Length of Visible Light 11h 41m
Length of Day
10h 48m
Waning Gibbous, 88% of the Moon is Illuminated
Feb 12
Waning Gibbous
Feb 16
Last Quarter
Feb 24
New
Mar 4
First Quarter
Mar 10
Full

Hourly Weather History & Observations

Time (EST) Temp. Dew Point Humidity Pressure Visibility Wind Dir Wind Speed Gust Speed Precip Events Conditions
12:56 AM 63.0 °F 48.0 °F 58% 29.78 in 10.0 mi Variable 3.5 mph - N/A   Clear
1:56 AM 61.0 °F 46.0 °F 58% 29.80 in 10.0 mi West 5.8 mph - N/A   Clear
2:56 AM 61.0 °F 39.0 °F 44% 29.81 in 10.0 mi West 8.1 mph 17.3 mph N/A   Clear
3:56 AM 60.1 °F 35.1 °F 39% 29.83 in 10.0 mi West 8.1 mph - N/A   Clear
4:56 AM 57.9 °F 34.0 °F 41% 29.83 in 10.0 mi Variable 4.6 mph - N/A   Clear
5:56 AM 55.9 °F 34.0 °F 44% 29.85 in 10.0 mi Variable 3.5 mph - N/A   Clear
6:56 AM 54.0 °F 35.1 °F 49% 29.88 in 10.0 mi Calm Calm - N/A   Clear
7:56 AM 54.0 °F 36.0 °F 51% 29.90 in 10.0 mi SW 4.6 mph - N/A   Clear
9:56 AM 62.1 °F 35.1 °F 37% 29.92 in 10.0 mi SW 9.2 mph - N/A   Clear
10:56 AM 64.0 °F 32.0 °F 30% 29.93 in 10.0 mi West 17.3 mph 31.1 mph N/A   Clear
11:56 AM 64.0 °F 28.9 °F 27% 29.94 in 10.0 mi West 15.0 mph 24.2 mph N/A   Clear
12:56 PM 66.9 °F 25.0 °F 21% 29.92 in 10.0 mi West 11.5 mph 36.8 mph N/A   Clear
1:56 PM 68.0 °F 19.0 °F 15% 29.92 in 10.0 mi WNW 15.0 mph 29.9 mph N/A   Clear
2:56 PM 66.9 °F 17.1 °F 15% 29.93 in 10.0 mi West 13.8 mph 29.9 mph N/A   Clear
3:56 PM 66.0 °F 16.0 °F 15% 29.93 in 10.0 mi WNW 23.0 mph 33.4 mph N/A   Clear
4:56 PM 64.9 °F 16.0 °F 15% 29.95 in 10.0 mi WNW 15.0 mph 25.3 mph N/A   Clear
5:56 PM 62.1 °F 16.0 °F 17% 29.97 in 10.0 mi West 8.1 mph - N/A   Clear
6:56 PM 60.1 °F 17.1 °F 19% 29.98 in 10.0 mi West 8.1 mph - N/A   Clear
7:56 PM 57.9 °F 18.0 °F 21% 29.99 in 10.0 mi West 5.8 mph - N/A   Clear
8:56 PM 57.0 °F 18.0 °F 22% 30.01 in 10.0 mi Variable 3.5 mph - N/A   Clear
9:56 PM 55.9 °F 19.0 °F 24% 30.03 in 10.0 mi West 3.5 mph - N/A   Clear
10:56 PM 54.0 °F 19.9 °F 26% 30.03 in 10.0 mi SW 3.5 mph - N/A   Clear
11:56 PM 51.1 °F 21.9 °F 32% 30.03 in 10.0 mi Variable 3.5 mph - N/A   Clear